This is the latest recevied weather packets stored in our database for station/object KA8OAD-10. If no packets are shown the sender has not sent any weather packets the latest 10 day(s).
| Time | Temp. | Humidity | Pressure | Rain* | Wind** | Luminosity | Snow |
|---|---|---|---|---|---|---|---|
| 1777213352 | 9.44° C | 89% | 1018.1 hPa | 0 mm | - | 98 W/m² | - |
| 1777212750 | 9.44° C | 89% | 1018.2 hPa | 0 mm | - | 97 W/m² | - |
| 1777211553 | 9.44° C | 90% | 1018 hPa | 0 mm | - | 90 W/m² | - |
| 1777210951 | 8.89° C | 90% | 1018 hPa | 0 mm | - | 98 W/m² | - |
| 1777210651 | 8.89° C | 90% | 1017.9 hPa | 0 mm | - | 77 W/m² | - |
| 1777210350 | 8.89° C | 91% | 1018 hPa | 0 mm | - | 70 W/m² | - |
| 1777210050 | 8.89° C | 91% | 1018 hPa | 0 mm | - | 70 W/m² | - |
| 1777209753 | 8.89° C | 91% | 1018 hPa | 0 mm | - | 67 W/m² | - |
| 1777209453 | 8.89° C | 91% | 1018.1 hPa | 0 mm | - | 67 W/m² | - |
| 1777207950 | 8.33° C | 91% | 1018.2 hPa | 0 mm | - | 72 W/m² | - |
| 1777207650 | 8.33° C | 91% | 1018.1 hPa | 0 mm | - | 67 W/m² | - |
| 1777207353 | 8.33° C | 91% | 1017.8 hPa | 0 mm | - | 72 W/m² | - |
| 1777207053 | 8.33° C | 91% | 1017.8 hPa | 0 mm | - | 65 W/m² | - |
| 1777206452 | 8.33° C | 91% | 1017.8 hPa | 0 mm | - | 65 W/m² | - |
| 1777206151 | 8.33° C | 91% | 1017.9 hPa | 0 mm | - | 53 W/m² | - |
| 1777205851 | 7.78° C | 91% | 1017.8 hPa | 0 mm | - | 47 W/m² | - |
| 1777205550 | 7.78° C | 91% | 1017.7 hPa | 0 mm | - | 42 W/m² | - |
| 1777205251 | 7.78° C | 91% | 1017.8 hPa | 0 mm | - | 42 W/m² | - |
| 1777204653 | 7.78° C | 91% | 1017.7 hPa | 0 mm | - | 35 W/m² | - |
| 1777204352 | 7.78° C | 91% | 1017.6 hPa | 0 mm | - | 32 W/m² | - |
| 1777204052 | 7.78° C | 91% | 1017.5 hPa | 0 mm | - | 30 W/m² | - |
| 1777203751 | 7.78° C | 91% | 1017.3 hPa | 0 mm | - | 26 W/m² | - |
| 1777203451 | 7.78° C | 91% | 1017.2 hPa | 0 mm | - | 26 W/m² | - |
| 1777203151 | 7.78° C | 91% | 1017.2 hPa | 0 mm | - | 25 W/m² | - |
| 1777202850 | 7.78° C | 91% | 1017.1 hPa | 0 mm | - | 19 W/m² | - |
* Rain latest hour (hover to see other rain measurements)
** Current wind speed in m/s (hover to see current wind gust speed)